{"data":{"norad_id":52640,"intl_designator":"2022-052AU","name":"STARLINK-3977","alt_names":[],"object_type":"PAYLOAD","status":"ACTIVE","operator":null,"country":"US","launch_date":"2022-05-14","launch_site_code":"AFETR","launch_vehicle":null,"mission":null,"orbit_class":"UNKNOWN","rcs_meters":null,"size_class":null,"mass_kg":null,"dimensions":null,"purposes":["comms"],"wikipedia_slug":null,"has_3d_model":false,"image_url":null,"decayed_at":null,"tle_current":{"epoch":"2026-09-19T22:00:16.043040Z","epoch_age_seconds":116840,"freshness":"FRESH","line1":"1 52640U 22052AU  26262.91685235  .00000321  00000+0  20115-4 0  9993","line2":"2 52640  53.1584  94.8328 0001128  98.6637 261.4493 15.35394527240616","mean_motion":15.35394527,"eccentricity":0.0001128,"inclination_deg":53.1584,"raan_deg":94.8328,"arg_perigee_deg":98.6637,"mean_anomaly_deg":261.4493,"bstar":2.0115e-5,"rev_number":24061,"period_min":93.786969712183,"perigee_km":458.97757851633,"apogee_km":460.52020557357,"semimajor_km":6837.885892045,"source":"CELESTRAK","updated_at":"2026-09-20T09:00:40.097766Z"}}}